Location: Wanzleben
(52.0609°N, 11.4408°E)
Time: 03:37:47
(UTC+00:00)

NOSS 2-2 (D) - Pass Details

Date: 18 September 2020
Orbit: 462 x 1746 km, 63.3° (Epoch: 14 October)

Event Time Altitude Azimuth Distance (km) Brightness Sun altitude
Rises 19:21:35 0° 225° (SW) 2,482 6.9 -18.5°
Reaches altitude 10° 19:23:35 10° 225° (SW) 1,627 5.9 -18.8°
Maximum altitude 19:27:05 89° 311° (NW) 513 3.1 -19.3°
Drops below altitude 10° 19:31:13 10° 46° (NE) 1,917 5.9 -19.8°
Enters shadow 19:32:06 - 46° (NE) 2,288 6.3 -20.0°
